www.pogodaiklimat.ru

Погода и климат >> Архив погоды >> Индия >> Okha


ПОГОДА в Okha

  • Прогноз погоды в Okha
  • Монитор погоды в Okha
  • Климат города

АРХИВ ПОГОДЫ в Okha

Время (UTC), дата Ветер
(напр.,м/с)
 
Видим.   Явления Облачность Т
(С)
Тd
(С)
f
(%)
Тe
(С)
Тes
(С)
Комфортность P
(гПа)
Po
(гПа)
Тmin
(С)
Tmax
(С)
R
(мм)
R24
(мм)
S
(см)
09 10.12 С 2 4000 м 5/5 600 м
[Cu Sc]
+27.6 0.0 17 +25 +30 комфорт 1012.4 1012.0
12 10.12 С 3 4000 м 6/6 600 м
[Cu Sc]
+27.2 +9.0 32 +25 +25 комфорт 1011.9 1012.0 +28.3
15 10.12 С 1 4000 м ясно +25.4 +18.8 67 +30 +30 душно 1013.5 1014.0
18 10.12 С 3 4000 м ясно +25.2 +21.0 78 +32 +32 очень
душно
1014.0 1014.0
21 10.12 С 2 4000 м ясно +25.0 +20.1 74 +31 +31 очень
душно
1013.1 1013.0
00 11.12 С 3 4000 м ясно +24.8 +9.9 39 +31 +31 очень
душно
1013.0 1013.0
03 11.12 С 2 4000 м 3/3 600 м
[Cu Sc]
+24.2 0.0 20 +23 +23 комфорт 1015.2 1015.0 +23.8
06 11.12 СВ 2 4000 м 3/3 600 м
[Cu Sc]
+25.6 0.0 19 +24 +31 комфорт 1016.5 1017.0
09 11.12 С 3 4000 м 1/1 600 м
[Cu Sc]
+27.0 0.0 17 +25 +32 комфорт 1014.0 1014.0
12 11.12 С 2 4000 м 1/1 600 м
[Cu Sc]
+26.4 0.0 18 +25 +25 комфорт 1013.2 1013.0 +27.4
15 11.12 С 3 4000 м ясно +25.0 +8.9 36 +31 +31 очень
душно
1014.9 1015.0
18 11.12 С 4 4000 м ясно +25.2 +17.2 61 +29 +29 душно 1014.9 1015.0
21 11.12 С 2 4000 м ясно +24.6 +15.3 56 +28 +28 душно 1014.4 1014.0
00 12.12 С 2 4000 м ясно +24.0 +7.3 34 +27 +27 жарко 1014.8 1015.0
03 12.12 В 2 4000 м ясно +22.8 0.0 22 +22 +23 комфорт 1017.0 1017.0 +22.6
06 12.12 В 2 4000 м ясно +24.8 0.0 20 +23 +33 комфорт 1018.3 1018.0
09 12.12 В 2 4000 м ясно +26.6 0.0 18 +25 +34 комфорт 1015.8 1016.0
12 12.12 С 3 4000 м ясно +26.6 0.0 18 +25 +25 комфорт 1015.4 1015.0 +27.2
15 12.12 С 3 4000 м ясно +25.8 +10.5 38 +27 +27 жарко 1017.4 1017.0
18 12.12 СВ 3 4000 м ясно +24.0 +11.2 45 +25 +25 комфорт 1018.6 1019.0
21 12.12 СВ 3 4000 м ясно +23.6 +12.0 48 +25 +25 комфорт 1018.4 1018.0
00 13.12 В 2 4000 м ясно +22.8 +11.8 50 +25 +25 комфорт 1018.7 1019.0
03 13.12 В 2 4000 м ясно +21.8 0.0 23 +21 +22 комфорт 1020.8 1021.0 +21.4
06 13.12 В 3 4000 м ясно +23.6 0.0 21 +22 +31 комфорт 1022.0 1022.0
09 13.12 В 2 4000 м ясно +25.2 0.0 19 +24 +32 комфорт 1019.2 1019.0
12 13.12 В 3 4000 м ясно +25.2 0.0 19 +24 +24 комфорт 1018.6 1019.0 +25.8
15 13.12 В 3 4000 м ясно +24.4 +4.4 27 +24 +24 комфорт 1020.3 1020.0
18 13.12 В 3 4000 м ясно +22.8 +6.4 35 +23 +23 комфорт 1021.0 1021.0
21 13.12 В 3 4000 м ясно +22.4 +6.4 35 +23 +23 комфорт 1020.7 1021.0
00 14.12 В 4 4000 м ясно +22.2 +6.6 36 +23 +23 комфорт 1020.1 1020.0
03 14.12 В 4 4000 м ясно +21.4 0.0 24 +21 +22 комфорт 1021.9 1022.0 +20.5
06 14.12 В 4 4000 м ясно +23.4 0.0 21 +22 +28 комфорт 1022.7 1023.0
09 14.12 В 3 4000 м ясно +25.2 0.0 19 +24 +31 комфорт 1019.3 1019.0
12 14.12 В 3 4000 м ясно +24.4 0.0 20 +23 +23 комфорт 1018.7 1019.0 +25.2
15 14.12 В 4 4000 м ясно +23.2 +5.9 33 +24 +24 комфорт 1020.8 1021.0
18 14.12 В 5 4000 м ясно +22.0 +6.8 37 +23 +23 комфорт 1020.8 1021.0
21 14.12 В 4 4000 м ясно +21.6 +6.8 38 +22 +22 комфорт 1020.4 1020.0
00 15.12 В 5 4000 м ясно +20.4 +3.4 33 +22 +22 комфорт 1019.0 1019.0
03 15.12 В 4 4000 м ясно +20.2 0.0 26 +20 +21 1021.0 1021.0 +19.3
06 15.12 В 4 4000 м ясно +22.8 0.0 22 +22 +28 комфорт 1021.5 1022.0
09 15.12 В 3 4000 м ясно +25.2 0.0 19 +24 +31 комфорт 1018.0 1018.0
12 15.12 В 3 4000 м ясно +24.4 0.0 20 +23 +24 комфорт 1017.2 1017.0 +25.4
15 15.12 В 4 4000 м ясно +23.4 +9.4 41 +25 +25 комфорт 1019.4 1019.0
18 15.12 В 5 4000 м ясно +22.0 +10.8 49 +24 +24 комфорт 1020.2 1020.0
21 15.12 В 4 4000 м ясно +21.6 +10.7 50 +23 +23 комфорт 1019.4 1019.0
00 16.12 В 5 4000 м ясно +21.2 +11.5 54 +23 +23 комфорт 1018.2 1018.0
03 16.12 В 4 4000 м 8/0 2000 м
[Ac trans Ci fib]
+20.2 0.0 26 +20 +21 1020.6 1021.0 +19.8
06 16.12 В 4 4000 м 8/0 2000 м
[Ac trans Ci fib]
+20.8 0.0 25 +21 +25 комфорт 1021.2 1021.0
09 16.12 В 4 4000 м 5/0 2000 м
[Ac trans]
+22.8 0.0 22 +22 +26 комфорт 1018.4 1018.0
12 16.12 СВ 4 4000 м 8/4 600 м
[Sc Ac trans]
+22.6 0.0 22 +22 +22 комфорт 1018.1 1018.0 +23.2
15 16.12 В 4 4000 м 6/0 2000 м
[Ac trans]
+22.4 +9.0 42 +24 +24 комфорт 1019.4 1019.0
18 16.12 В 5 4000 м 5/0 2000 м
[Ac trans]
+22.6 +10.2 45 +24 +24 комфорт 1019.9 1020.0
00 17.12 СВ 4 4000 м 6/0 2000 м
[Ac trans]
+22.8 +10.5 46 +25 +25 комфорт 1018.3 1018.0
03 17.12 В 3 4000 м ясно +21.4 0.0 24 +21 +22 комфорт 1020.2 1020.0 +20.7

 

Местоположение метеостанции Okha (Gujarat, Индия): широта 22.48 долгота 69.12 высота над уровнем моря 7 м.

В архиве по умолчанию представлена погода в Okha за последнюю неделю. Архивные данные за месяц целиком и за предыдущие месяцы, начиная с января 2011 года, Вы можете получить, выбрав интересующий диапазон дат из раскрывающегося списка и нажав кнопку "Ввод!".


*Определитесь, кто Вы:
робот инопланетянин человек

Внимание! Время в таблицах - всемирное. Для получения местного времени необходимо прибавить поправку, которая в Okha равна 5.5 ч.

Смотрите также архив погоды в соседних городах и на ближайших метеорологических станциях:

Погода в Dwarka (Gujarat, Индия) (13 км)
Погода в Mandvi (Gujarat, Индия) (41 км)
Погода в Naliya (Gujarat, Индия) (90 км)
Погода в Bhuj-Rudramata (Gujarat, Индия) (103 км)
Погода в Porbandar (Gujarat, Индия) (108 км)
Погода в Kandla (Gujarat, Индия) (123 км)
Погода в New Kandla (Gujarat, Индия) (127 км)
Погода в Rajkot (Gujarat, Индия) (172 км)
Погода в Veraval (Gujarat, Индия) (218 км)
Погода в Amreli (Gujarat, Индия) (238 км)

Пояснения к столбцам:

Ветер - указаны скорость ветра в м/с - средняя за 10 мин, порывы в срок и между сроками (в фигурных скобках) и направление, откуда дует ветер: С - северный, СВ - северо-восточный, В - восточный, ЮВ - юго-восточный, Ю - южный, ЮЗ - юго-западный, З - западный, СЗ - северо-западный.
Видимость - горизонтальная дальность видимости в метрах или километрах. При видимости от 1 до 10 км при отсутствии осадков обычно наблюдается дымка, при ухудшении видимости до 1 км и менее - туман. В сухую погоду видимость может ухудшаться дымом, пылью или мглою.
Явления - указаны атмосферные явления, наблюдавшиеся в срок или в последний час перед сроком; фигурными скобками обозначены явления, наблюдавшиеся между сроками (за 1-3 часа до срока); квадратными скобками обозначены град или гололедные отложения с указанием их диаметра в мм.
Облачность - указаны через наклонную черту общая и нижняя облачность в баллах и высота нижней границы облаков в метрах; квадратными скобками обозначены формы облаков: Ci - перистые, Cs - перисто-слоистые, Cc - перисто-кучевые, Ac - высококучевые, As - высокослоистые, Sc - слоисто-кучевые, Ns - слоисто-дождевые, Cu - кучевые, Cb - кучево-дождевые. Подробнее классификацию облаков см. в Атласе облаков (PDF).
T - Температура воздуха - температура, измеренная на высоте 2 м над землей.
Td - Температура точки росы - температура, при понижении до которой содержащийся в воздухе водяной пар достигнет насыщения.
f - Относительная влажность воздуха - влажноcть воздуха, измеренная на высоте 2 м над землей.
Te - Эффективная температура - температура, которую ощущает одетый по сезону человек в тени. Характеристика душности погоды. При расчете учитывается влияние влажности воздуха и скорости ветра на теплоощущения человека.
Tes - Эффективная температура на солнце - температура, которую ощущает человек, с поправкой на солнечный нагрев. Характеристика знойности погоды. Зависит от высоты солнца над горизонтом, облачности и скорости ветра. Ночью, в пасмурную погоду, а также при ветре 12 м/с и более поправка равна нулю.
P - Атмосферное давление - приведенное к уровню моря атмосферное давление.
Po - Атмосферное давление - измеренное на уровне метеостанции атмосферное давление.
Tmin - Минимальная температура - минимум температуры воздуха на высоте 2 м над землей.
Tmax - Максимальная температура - максимум температуры воздуха на высоте 2 м над землей.
R - Количество осадков - Количество выпавших осадков за период времени, мм. При наведении курсора мыши на число - период времени, за который выпало указанное количество осадков.
R24 - Количество осадков - Количество выпавших осадков за 24 часа, мм.
S - Снежный покров - Высота снежного покрова, см. При наведении курсора мыши на число - состояние снежного покрова и степень покрытия местности в баллах.